Weather History for KAMW - March, 2012

Change the Weather History Date:

Wednesday, March 7, 2012

  Actual Average Record
Temperature  
Mean Temperature 48 °F 33 °F  
Max Temperature 65 °F 43 °F 65 °F (2012)
Min Temperature 31 °F 23 °F 5 °F (2013)
Degree Days  
Heating Degree Days 17 32  
Month to date heating degree days 213 236  
Since 1 July heating degree days 4730 5521  
Cooling Degree Days 0 0  
Month to date cooling degree days 0 0  
Year to date cooling degree days 0 0  
Moisture  
Dew Point 41 °F    
Average Humidity 76    
Maximum Humidity 89    
Minimum Humidity 63    
Precipitation  
Precipitation 0.00 in 0.05 in 0.81 in (2009)
Month to date precipitation 0.37  
Sea Level Pressure  
Sea Level Pressure 29.76 in    
Wind  
Wind Speed 18 mph (West)    
Max Wind Speed 32 mph    
Max Gust Speed 41 mph    
Visibility 9 miles    
Events      
T = Trace of Precipitation, MM = Missing Value Source: NWS Daily Summary

Daily Weather History Graph

Daily Weather History Graph

Search for Another Location

Airport or City:

Trip Planner

Search our weather history database for the weather conditions in past years. The results will help you decide how hot, cold, wet, or windy it might be!

Date:

Astronomy

Mar. 07, 2012 Rise Set
Actual Time 6:38 AM CST 6:12 PM CST
Civil Twilight 6:11 AM CST 6:40 PM CST
Nautical Twilight 5:38 AM CST 7:12 PM CST
Astronomical Twilight 5:06 AM CST 7:45 PM CST
Moon 5:50 PM CST (3/7) 5:49 AM CST (3/7)
Length of Visible Light 12h 29m
Length of Day
11h 33m
Waxing Gibbous, 99% of the Moon is Illuminated
Mar 7
Waxing Gibbous
Mar 8
Full
Mar 14
Last Quarter
Mar 22
New
Mar 30
First Quarter

Hourly Weather History & Observations

Time (CST) Temp. Windchill Dew Point Humidity Pressure Visibility Wind Dir Wind Speed Gust Speed Precip Events Conditions
12:53 AM 57.9 °F - 46.9 °F 67% 29.67 in 10.0 mi South 16.1 mph - N/A   Clear
1:53 AM 57.9 °F - 46.9 °F 67% 29.67 in 10.0 mi South 19.6 mph - N/A   Clear
2:53 AM 57.9 °F - 46.9 °F 67% 29.65 in 10.0 mi South 19.6 mph 26.5 mph N/A   Clear
3:53 AM 57.9 °F - 46.9 °F 67% 29.63 in 10.0 mi South 18.4 mph 26.5 mph N/A   Clear
4:53 AM 57.9 °F - 48.0 °F 70% 29.62 in 10.0 mi South 17.3 mph 27.6 mph N/A   Clear
5:53 AM 59.0 °F - 48.0 °F 67% 29.66 in 10.0 mi SSW 11.5 mph 21.9 mph N/A   Overcast
6:53 AM 59.0 °F - 48.9 °F 69% 29.65 in 10.0 mi South 18.4 mph - N/A   Overcast
7:53 AM 60.1 °F - 48.9 °F 67% 29.65 in 10.0 mi SSW 24.2 mph 29.9 mph N/A   Overcast
8:53 AM 62.1 °F - 50.0 °F 65% 29.65 in 10.0 mi SSW 25.3 mph 36.8 mph N/A   Overcast
9:53 AM 62.1 °F - 50.0 °F 65% 29.65 in 10.0 mi SSW 23.0 mph 33.4 mph N/A   Overcast
10:53 AM 64.0 °F - 51.1 °F 63% 29.65 in 10.0 mi SSW 28.8 mph 36.8 mph N/A   Overcast
11:53 AM 64.9 °F - 51.1 °F 61% 29.64 in 10.0 mi SSW 31.1 mph 38.0 mph N/A   Overcast
12:51 PM 55.4 °F - 46.4 °F 72% 29.68 in 10.0 mi WNW 19.6 mph 32.2 mph N/A   Overcast
12:53 PM 54.0 °F - 46.9 °F 77% 29.67 in 10.0 mi WNW 18.4 mph 31.1 mph N/A   Overcast
1:00 PM 53.6 °F - 44.6 °F 72% 29.69 in 10.0 mi WNW 25.3 mph 31.1 mph N/A   Overcast
1:53 PM 45.0 °F 37.9 °F 41.0 °F 86% 29.72 in 4.0 mi WNW 16.1 mph - N/A   Overcast
2:53 PM 44.1 °F 37.1 °F 39.0 °F 82% 29.75 in 7.0 mi NW 15.0 mph 21.9 mph N/A   Overcast
3:01 PM 44.6 °F 38.4 °F 39.2 °F 81% 29.76 in 6.0 mi NW 12.7 mph 23.0 mph N/A   Haze
3:24 PM 41.0 °F 33.5 °F 37.4 °F 87% 29.77 in 4.0 mi NW 13.8 mph 21.9 mph N/A   Overcast
3:53 PM 39.9 °F 32.1 °F 36.0 °F 86% 29.79 in 8.0 mi NW 13.8 mph - N/A   Overcast
4:15 PM 39.2 °F 31.6 °F 35.6 °F 87% 29.79 in 10.0 mi NW 12.7 mph - N/A   Overcast
4:53 PM 39.0 °F 31.4 °F 34.0 °F 82% 29.82 in 10.0 mi WNW 12.7 mph - N/A   Overcast
5:53 PM 37.0 °F 28.5 °F 33.1 °F 86% 29.85 in 10.0 mi NW 13.8 mph 25.3 mph N/A   Overcast
6:29 PM 37.4 °F 28.5 °F 32.0 °F 81% 29.86 in 10.0 mi NW 15.0 mph - N/A   Overcast
6:53 PM 37.0 °F 28.9 °F 32.0 °F 82% 29.87 in 10.0 mi NNW 12.7 mph - N/A   Overcast
7:53 PM 37.0 °F 27.4 °F 30.9 °F 79% 29.91 in 10.0 mi NW 17.3 mph - N/A   Overcast
8:53 PM 36.0 °F 25.3 °F 28.0 °F 73% 29.94 in 10.0 mi NNW 19.6 mph 25.3 mph N/A   Overcast
9:25 PM 33.8 °F 23.5 °F 26.6 °F 75% 29.97 in 10.0 mi NNW 16.1 mph - N/A   Overcast
9:53 PM 33.1 °F 21.9 °F 26.1 °F 75% 29.99 in 10.0 mi NW 18.4 mph - N/A   Scattered Clouds
11:53 PM 32.0 °F 24.2 °F 26.1 °F 79% 30.04 in 10.0 mi NW 9.2 mph - N/A   Mostly Cloudy